Change the Weather History Date:

Saturday, March 17, 2012

  Actual Average Record
Temperature  
Mean Temperature 47 °F -  
Max Temperature 50 °F 66 °F 84 °F (2004)
Min Temperature 44 °F 43 °F 32 °F (1966)
Degree Days  
Heating Degree Days 18    
Moisture  
Dew Point 42 °F    
Average Humidity 81    
Maximum Humidity 93    
Minimum Humidity 58    
Precipitation  
Precipitation 0.00 in - - ()
Sea Level Pressure  
Sea Level Pressure 29.64 in    
Wind  
Wind Speed 6 mph (West)    
Max Wind Speed 22 mph    
Max Gust Speed 30 mph    
Visibility 10 miles    
Events      
Averages and records for this station are not official NWS values.
T = Trace of Precipitation, MM = Missing Value Source: NWS Daily Summary

Daily Weather History Graph

Daily Weather History Graph

Search for Another Location

Airport or City:

Trip Planner

Search our weather history database for the weather conditions in past years. The results will help you decide how hot, cold, wet, or windy it might be!

Date:

Astronomy

Mar. 17, 2012 Rise Set
Actual Time 7:16 AM PDT 7:18 PM PDT
Civil Twilight 6:50 AM PDT 7:44 PM PDT
Nautical Twilight 6:19 AM PDT 8:15 PM PDT
Astronomical Twilight 5:48 AM PDT 8:46 PM PDT
Moon 4:16 AM PDT (3/17) 2:53 PM PDT (3/17)
Length of Visible Light 12h 54m
Length of Day
12h 02m
Waning Crescent, 22% of the Moon is Illuminated
Mar 17
Waning Crescent
Mar 22
New
Mar 30
First Quarter
Apr 6
Full
Apr 13
Last Quarter

Hourly Weather History & Observations

Time (PDT) Temp. Windchill Dew Point Humidity Pressure Visibility Wind Dir Wind Speed Gust Speed Precip Events Conditions
12:10 AM 50.0 °F - 46.4 °F 87% 29.76 in 10.0 mi SE 4.6 mph - N/A   Mostly Cloudy
12:30 AM 48.2 °F - 46.4 °F 93% 29.76 in 10.0 mi SSW 4.6 mph - N/A   Partly Cloudy
12:50 AM 48.2 °F - 46.4 °F 93% 29.74 in 10.0 mi SW 4.6 mph - N/A   Clear
1:10 AM 48.2 °F - 46.4 °F 93% 29.74 in 10.0 mi SW 3.5 mph - N/A   Clear
1:30 AM 48.2 °F - 44.6 °F 87% 29.74 in 10.0 mi SW 3.5 mph - N/A   Scattered Clouds
1:50 AM 48.2 °F - 44.6 °F 87% 29.73 in 10.0 mi Calm Calm - N/A   Overcast
2:10 AM 48.2 °F - 44.6 °F 87% 29.73 in 10.0 mi Calm Calm - N/A   Overcast
2:30 AM 46.4 °F - 44.6 °F 93% 29.71 in 10.0 mi Calm Calm - N/A   Overcast
2:55 AM 46.4 °F 44.3 °F 44.6 °F 93% 29.70 in 10.0 mi SE 4.6 mph - N/A   Overcast
3:10 AM 46.4 °F 43.5 °F 44.6 °F 93% 29.69 in 10.0 mi SSE 5.8 mph - N/A   Overcast
3:30 AM 46.4 °F 44.3 °F 44.6 °F 93% 29.68 in 10.0 mi SW 4.6 mph - N/A   Overcast
3:50 AM 46.4 °F - 44.6 °F 93% 29.67 in 10.0 mi Calm Calm - N/A   Overcast
4:10 AM 46.4 °F 45.2 °F 44.6 °F 93% 29.65 in 10.0 mi NW 3.5 mph - N/A   Overcast
4:30 AM 46.4 °F 44.3 °F 44.6 °F 93% 29.65 in 10.0 mi West 4.6 mph - N/A   Mostly Cloudy
4:50 AM 46.4 °F - 44.6 °F 93% 29.64 in 10.0 mi Calm Calm - N/A   Mostly Cloudy
5:10 AM 46.4 °F - 44.6 °F 93% 29.64 in 10.0 mi Calm Calm - N/A   Overcast
5:30 AM 46.4 °F 45.2 °F 44.6 °F 93% 29.63 in 10.0 mi WSW 3.5 mph - N/A   Mostly Cloudy
5:50 AM 44.6 °F - 42.8 °F 93% 29.62 in 10.0 mi Calm Calm - N/A   Partly Cloudy
6:15 AM 46.4 °F - 42.8 °F 87% 29.62 in 10.0 mi Calm Calm - N/A   Partly Cloudy
6:30 AM 46.4 °F 45.2 °F 42.8 °F 87% 29.62 in 10.0 mi North 3.5 mph - N/A   Partly Cloudy
6:47 AM 44.6 °F - 42.8 °F 93% 29.60 in 10.0 mi Calm Calm - N/A   Mostly Cloudy
8:15 AM 46.4 °F 45.2 °F 44.6 °F 93% 29.59 in 9.0 mi NW 3.5 mph - N/A   Overcast
8:47 AM 46.4 °F 45.2 °F 44.6 °F 93% 29.58 in 8.0 mi SE 3.5 mph - N/A   Overcast
9:21 AM 48.2 °F - 44.6 °F 87% 29.58 in 7.0 mi Calm Calm - N/A   Mostly Cloudy
9:47 AM 48.2 °F - 42.8 °F 82% 29.58 in 10.0 mi North 6.9 mph - N/A   Overcast
10:47 AM 48.2 °F - 44.6 °F 87% 29.58 in 10.0 mi North 9.2 mph - N/A   Overcast
11:47 AM 48.2 °F - 42.8 °F 82% 29.58 in 10.0 mi NNW 10.4 mph - N/A   Overcast
12:47 PM 48.2 °F - 39.2 °F 71% 29.56 in 10.0 mi NW 9.2 mph - N/A   Mostly Cloudy
1:47 PM 50.0 °F - 39.2 °F 66% 29.55 in 10.0 mi West 10.4 mph - N/A   Mostly Cloudy
2:47 PM 50.0 °F - 39.2 °F 66% 29.56 in 10.0 mi WNW 16.1 mph 20.7 mph N/A   Mostly Cloudy
3:47 PM 50.0 °F - 35.6 °F 58% 29.56 in 10.0 mi WNW 21.9 mph 29.9 mph N/A   Mostly Cloudy
4:47 PM 50.0 °F - 37.4 °F 62% 29.57 in 10.0 mi West 19.6 mph 25.3 mph N/A   Mostly Cloudy
5:49 PM 50.0 °F - 37.4 °F 62% 29.58 in 10.0 mi WNW 18.4 mph 29.9 mph N/A   Overcast
6:47 PM 48.2 °F - 37.4 °F 66% 29.59 in 10.0 mi West 17.3 mph 27.6 mph N/A   Mostly Cloudy
7:55 PM 48.2 °F - 37.4 °F 66% 29.61 in 10.0 mi West 18.4 mph 26.5 mph N/A   Mostly Cloudy
9:10 PM 48.2 °F - 37.4 °F 66% 29.63 in 10.0 mi West 17.3 mph 24.2 mph N/A   Scattered Clouds
9:30 PM 46.4 °F 39.2 °F 37.4 °F 71% 29.64 in 10.0 mi WNW 18.4 mph 24.2 mph N/A   Scattered Clouds
9:50 PM 46.4 °F 39.5 °F 37.4 °F 71% 29.65 in 10.0 mi WNW 17.3 mph 24.2 mph N/A   Mostly Cloudy
10:10 PM 46.4 °F 40.7 °F 37.4 °F 71% 29.65 in 10.0 mi WNW 12.7 mph 21.9 mph N/A   Mostly Cloudy
10:30 PM 46.4 °F 40.1 °F 35.6 °F 66% 29.66 in 10.0 mi WNW 15.0 mph 21.9 mph N/A   Mostly Cloudy
10:50 PM 46.4 °F 40.7 °F 35.6 °F 66% 29.66 in 10.0 mi WNW 12.7 mph 23.0 mph N/A   Scattered Clouds
11:10 PM 46.4 °F 41.1 °F 35.6 °F 66% 29.67 in 10.0 mi WNW 11.5 mph 21.9 mph N/A   Mostly Cloudy
11:30 PM 46.4 °F 40.1 °F 35.6 °F 66% 29.67 in 10.0 mi West 15.0 mph 18.4 mph N/A   Mostly Cloudy